Location: Moosomin
(50.1436°N, 101.6668°W)
Time: 12:23:32
(UTC-06:00)

Falcon 9 debris - Visible Passes

Search period start: 16 July 2019 00:00
Search period end: 26 July 2019 00:00
Orbit: 431 x 440 km, 53.0° (Epoch: 15 July)

Date Brightness Start Highest point End Pass type
(mag) Time Alt. Az. Time Alt. Az. Time Alt. Az.
16 Jul 5.5 02:02:21 12° SE 02:02:21 12° SE 02:03:27 10° ESE visible
16 Jul 3.3 03:35:38 15° SW 03:38:23 58° SSE 03:41:47 10° ENE visible
17 Jul 3.6 02:54:45 27° SSW 02:56:11 43° SSE 02:59:29 10° ENE visible
18 Jul 4.0 02:13:50 31° SSE 02:14:01 32° SE 02:17:07 10° E visible
18 Jul 3.3 03:47:27 10° WSW 03:50:53 72° NNW 03:54:20 10° ENE visible
19 Jul 4.9 01:32:53 20° ESE 01:32:53 20° ESE 01:34:40 10° E visible
19 Jul 3.1 03:06:09 18° WSW 03:08:37 87° NNW 03:12:04 10° ENE visible
20 Jul 5.7 00:51:54 11° E 00:51:54 11° E 00:52:05 10° E visible
20 Jul 3.0 02:25:10 38° SW 02:26:21 75° SSE 02:29:48 10° ENE visible
20 Jul 3.9 04:00:10 10° W 04:03:33 51° N 04:06:55 10° ENE visible
21 Jul 3.2 01:44:08 57° SSE 01:44:08 57° SSE 01:47:31 10° ENE visible
21 Jul 3.8 03:17:48 10° W 03:21:13 55° N 03:24:37 10° ENE visible
22 Jul 4.3 01:03:03 30° E 01:03:03 30° E 01:05:12 10° ENE visible
22 Jul 3.5 02:36:19 16° W 02:38:54 62° NNW 02:42:19 10° ENE visible
22 Jul 3.9 04:12:49 10° WNW 04:16:14 54° N 04:19:37 10° E visible
23 Jul 5.3 00:21:55 16° E 00:21:55 16° E 00:22:49 10° E visible
23 Jul 3.3 01:55:11 33° W 01:56:35 73° NNW 02:00:02 10° ENE visible
23 Jul 4.0 03:30:30 10° WNW 03:33:54 51° N 03:37:16 10° E visible
24 Jul 3.0 01:13:58 71° WSW 01:14:18 88° NNW 01:17:46 10° ENE visible
24 Jul 4.0 02:48:10 10° WNW 02:51:33 50° N 02:54:55 10° ENE visible
25 Jul 3.4 00:32:39 55° E 00:32:39 55° E 00:35:28 10° ENE visible
25 Jul 3.9 02:05:53 10° W 02:09:12 52° N 02:12:35 10° ENE visible
25 Jul 3.5 03:43:04 10° WNW 03:46:31 69° NNE 03:49:57 10° E visible
25 Jul 4.2 23:51:06 32° E 23:51:06 32° E 23:53:11 10° ENE visible
